CAPE
0 0 0 0 0 0 0 0 0 124 411 561 466 689 553 638 714 189 265 435 356 98 94 134 297 491 472 395 366 368 387 440 449 449 488 549 526 497 400 366 327 188 88 36 12 0 0 0 0
0 0 0 0 0 0 0 29 497 462 539 215 193 559 674 548 723 443 420 622 496 169 93 180 181 320 364 362 356 410 514 496 447 398 364 340 468 521 349 224 118 91 14 0 0 0 0 0 0
0 0 0 0 0 0 0 550 374 706 93 11 91 213 381 603 481 562 329 511 657 173 198 218 245 294 380 369 449 465 456 380 350 368 407 488 524 382 188 64 5 0 0 0 0 0 0 0 0
0 0 0 0 0 0 0 460 269 3 256 309 60 48 16 115 395 484 449 427 503 462 306 254 317 300 368 474 469 430 360 337 346 379 323 236 256 159 26 0 0 0 0 0 0 0 0 0 0
0 0 0 0 0 0 0 653 130 264 152 143 274 141 2 319 485 370 294 354 333 351 275 326 276 333 491 486 450 374 358 397 374 218 47 51 43 4 0 0 0 0 0 0 0 0 0 0 0
0 0 0 0 0 3 1 610 101 17 17 0 0 75 60 4 227 417 400 264 319 326 422 412 424 459 470 408 386 336 346 369 213 42 5 0 1 0 0 0 0 0 0 0 0 0 0 0 0
0 0 0 0 0 1 351 298 83 5 2 46 8 225 79 120 44 14 362 76 82 272 463 581 523 510 412 414 370 309 330 228 54 14 0 0 0 0 0 0 0 0 0 0 0 0 0 0 0
0 0 0 0 0 308 295 11 33 263 122 8 109 68 184 269 417 404 138 8 142 300 492 576 565 539 476 387 305 295 208 53 0 0 0 0 0 0 0 0 0 0 0 0 0 0 0 0 0
0 0 0 3 110 415 1 0 1 24 37 73 110 0 21 593 116 22 45 71 104 269 593 546 575 564 461 347 289 178 40 4 0 0 0 0 2 14 92 18 0 0 0 0 0 0 0 0 0
0 0 0 7 73 108 0 0 2 4 0 76 550 16 199 632 23 0 0 58 145 143 325 427 385 440 429 182 143 29 0 1 6 3 0 147 462 169 284 41 0 10 10 1 1 0 0 0 14
0 0 0 389 135 44 12 0 0 72 9 0 732 1025 1043 901 70 0 0 124 11 202 237 206 232 117 50 10 136 16 0 79 226 405 558 507 571 561 228 460 263 236 141 197 63 23 32 55 45
0 0 49 71 70 1 80 55 56 18 31 74 1108 905 738 720 360 100 20 333 117 1 13 83 50 22 0 1 24 0 62 361 512 657 678 590 509 439 226 286 448 417 254 122 107 71 37 37 5
0 0 42 26 0 1 3 0 0 37 62 760 819 626 665 775 679 419 60 65 0 0 0 44 4 27 0 60 210 346 513 400 407 441 584 727 519 298 266 273 334 179 96 1 0 0 0 0 0
0 1 10 3 0 6 72 0 36 112 154 249 207 558 527 543 0 131 15 0 0 0 39 12 79 221 333 470 420 245 69 13 37 161 292 480 519 584 558 353 120 0 0 0 0 0 0 0 0
6 0 8 0 38 0 59 118 94 166 286 196 221 259 111 230 294 11 0 0 1 103 150 107 239 428 452 284 122 0 0 0 0 29 67 92 167 168 40 6 0 0 0 0 0 0 0 0 0
0 0 0 0 8 9 1 5 117 163 220 264 253 153 139 113 28 7 0 0 22 235 305 275 383 473 226 84 2 9 0 0 0 0 0 0 0 0 0 0 0 0 0 0 0 0 0 0 0
0 0 0 1 0 1 7 8 133 206 203 196 184 139 59 17 10 3 0 0 25 328 521 553 432 197 19 0 0 0 0 0 0 0 0 0 0 0 0 0 0 0 0 0 0 0 0 0 0
0 0 0 0 0 12 0 3 88 194 218 144 137 152 95 4 9 41 28 20 3 346 686 574 328 12 0 0 0 0 0 0 0 0 0 0 0 0 0 0 0 0 0 0 0 0 0 0 0
0 2 26 1 0 0 0 0 34 68 133 44 193 213 201 137 270 291 288 304 264 355 810 539 205 19 2 0 0 0 0 0 0 0 0 0 0 0 0 0 0 0 0 0 0 0 0 0 0
0 3 0 0 0 0 1 9 0 23 25 217 356 363 382 303 394 444 578 616 618 896 642 348 295 60 104 227 218 13 0 0 0 0 0 0 0 0 0 0 0 0 0 0 0 0 0 0 0
8 2 2 17 0 0 13 0 6 14 75 177 267 384 459 491 555 709 865 907 908 788 707 507 448 261 370 233 10 0 0 0 0 0 0 0 0 0 0 0 0 0 0 0 0 0 0 0 0
4 0 2 1 5 0 3 11 9 23 89 181 302 329 452 559 708 888 1015 794 681 567 417 505 550 451 226 0 0 0 0 0 0 2 0 0 0 0 0 0 0 0 0 0 0 0 0 0 0
0 0 64 20 14 4 0 0 1 6 46 173 314 446 559 604 719 772 934 723 710 660 657 428 44 12 0 0 0 0 16 6 3 3 0 0 0 0 0 0 0 0 0 0 4 13 10 0 2
58 35 61 34 25 15 0 1 2 0 63 199 247 403 493 554 542 390 454 380 193 124 40 7 0 0 0 0 0 0 0 0 0 0 0 0 0 0 0 0 0 0 0 0 0 5 2 0 0
16 19 29 4 19 18 29 51 58 3 45 54 207 338 467 357 194 50 30 3 1 0 0 0 0 0 0 0 0 0 0 0 0 0 0 0 0 0 0 0 0 0 0 0 1 15 36 11 6
66 0 1 30 9 98 13 14 166 54 72 284 245 267 362 368 53 0 0 0 0 0 0 0 0 0 0 0 0 0 0 0 0 0 0 0 0 0 0 0 0 0 0 0 0 3 23 37 17
0 61 62 12 0 0 0 0 201 40 10 125 279 322 410 381 18 0 0 0 0 0 0 0 0 1 0 0 0 0 0 0 0 0 0 0 0 0 0 0 0 0 0 0 0 0 18 31 5
0 0 42 0 0 0 0 0 91 33 0 32 223 315 397 286 13 0 0 0 3 0 1 0 2 0 0 0 0 0 0 0 0 0 0 0 0 0 0 0 0 0 0 0 0 0 14 10 14
3 6 0 0 24 7 3 9 36 0 0 0 90 239 340 130 2 0 0 4 4 2 1 0 0 0 0 0 0 0 0 0 0 0 0 0 0 0 0 0 0 0 0 0 3 7 5 6 0
0 2 2 0 0 3 0 0 0 0 0 0 0 108 184 36 4 8 7 6 7 0 0 0 0 0 0 0 0 0 0 0 0 0 0 0 0 0 0 0 0 0 3 0 0 0 0 0 0
CIN
-0 -0 -0 -0 -0 -0 -0 -0 -0 -13 -19 -42 -16 -12 -90 -94 -78 -58 -45 -11 -57 -158 -189 -127 -73 -18 -17 -37 -56 -69 -60 -46 -31 -22 -10 -1 -1 -0 -5 -10 -18 -62 -116 -143 -162 -0 -0 -0 -0
-0 -0 -0 -0 -0 -0 -0 -10 -31 -85 -173 -174 -212 -2 -23 -30 -36 -43 -13 -1 -33 -88 -112 -95 -114 -39 -32 -48 -62 -61 -38 -24 -23 -26 -22 -22 -1 -0 -14 -52 -97 -115 -88 -0 -0 -0 -0 -0 -0
-0 -0 -0 -0 -0 -0 -0 -34 -29 -68 -94 -146 -120 -45 -78 -15 -21 -3 -14 -10 -5 -57 -72 -99 -71 -60 -33 -53 -42 -49 -42 -42 -38 -29 -15 -3 -0 -21 -76 -125 -49 -0 -0 -0 -0 -0 -0 -0 -0
-0 -0 -0 -0 -0 -0 -0 -80 -115 -27 -5 -29 -61 -134 -245 -148 -57 -39 -10 -17 -5 -7 -58 -83 -55 -54 -43 -28 -43 -47 -46 -43 -41 -25 -26 -46 -53 -98 -165 -0 -0 -0 -0 -0 -0 -0 -0 -0 -0
-0 -0 -0 -0 -0 -0 -0 -44 -192 -109 -55 -49 -8 -106 -215 -73 -38 -68 -54 -8 -4 -25 -35 -38 -62 -22 -14 -25 -35 -35 -29 -22 -26 -58 -141 -140 -150 -36 -0 -0 -0 -0 -0 -0 -0 -0 -0 -0 -0
-0 -0 -0 -0 -0 -9 -4 -97 -113 -33 -43 -19 -0 -55 -100 -163 -63 -36 -16 -45 -6 -10 -15 -20 -23 -9 -12 -25 -21 -31 -24 -20 -54 -171 -282 -0 -175 -0 -0 -0 -0 -0 -0 -0 -0 -0 -0 -0 -0
-0 -0 -0 -0 -0 -21 -16 -115 -192 -120 -70 -101 -112 -1 -65 -27 -22 -53 -8 -60 -24 -12 -5 -1 -1 -2 -24 -15 -34 -37 -21 -52 -157 -383 -6 -0 -0 -0 -0 -0 -0 -0 -0 -0 -0 -0 -0 -0 -0
-0 -0 -0 -0 -0 -115 -167 -230 -152 -54 -93 -61 -65 -96 -10 -13 -7 -7 -32 -65 -22 -10 -4 -3 -7 -8 -12 -21 -40 -42 -73 -199 -0 -0 -0 -0 -0 -0 -0 -0 -0 -0 -0 -0 -0 -0 -0 -0 -0
-0 -0 -0 -1 -38 -86 -39 -0 -106 -97 -58 -35 -37 -0 -83 -9 -71 -123 -37 -6 -11 -11 -19 -10 -10 -15 -34 -55 -67 -86 -211 -456 -0 -0 -0 -0 -15 -104 -91 -79 -0 -0 -0 -0 -0 -0 -0 -0 -0
-0 -0 -0 -12 -74 -89 -48 -0 -133 -23 -0 -24 -38 -39 -57 -22 -110 -0 -0 -37 -5 -8 -4 -4 -21 -26 -27 -97 -117 -154 -0 -222 -310 -105 -0 -51 -12 -19 -26 -73 -0 -66 -57 -29 -33 -0 -0 -0 -13
-0 -0 -0 -45 -37 -86 -166 -0 -0 -7 -23 -0 -4 -2 -7 -0 -115 -0 -0 -17 -47 -8 -26 -69 -65 -93 -116 -202 -66 -237 -0 -55 -16 -5 -6 -5 -5 -12 -21 -12 -43 -50 -48 -34 -53 -64 -32 -20 -18
-0 -2 -11 -79 -89 -75 -84 -68 -7 -6 -10 -58 -19 -34 -1 -10 -17 -3 -65 -3 -12 -15 -111 -145 -144 -172 -0 -159 -108 -0 -51 -3 -4 -8 -8 -15 -17 -26 -49 -52 -44 -12 -13 -5 -4 -7 -21 -5 -2
-0 -0 -42 -70 -5 -25 -7 -4 -0 -22 -26 -4 -13 -13 -3 -9 -4 -22 -79 -34 -0 -0 -0 -174 -70 -141 -0 -125 -50 -27 -20 -22 -24 -22 -18 -9 -21 -31 -37 -43 -34 -16 -44 -28 -0 -0 -0 -0 -0
-0 -2 -21 -42 -0 -4 -5 -2 -71 -26 -22 -28 -7 -7 -6 -22 -0 -66 -45 -0 -0 -0 -145 -177 -133 -62 -16 -11 -16 -35 -28 -43 -34 -88 -61 -38 -27 -15 -1 -7 -44 -0 -0 -0 -0 -0 -0 -0 -0
-7 -0 -10 -3 -29 -0 -25 -24 -17 -1 -18 -29 -2 -8 -10 -3 -48 -64 -0 -0 -36 -97 -106 -134 -71 -6 -15 -64 -85 -5 -0 -0 -0 -206 -85 -149 -89 -51 -91 -89 -0 -0 -0 -0 -0 -0 -0 -0 -0
-0 -0 -0 -0 -7 -29 -2 -29 -31 -33 -19 -0 -1 -5 -6 -12 -87 -182 -0 -0 -138 -34 -41 -39 -31 -40 -93 -134 -59 -190 -0 -0 -0 -0 -0 -0 -0 -0 -0 -0 -0 -0 -0 -0 -0 -0 -0 -0 -0
-0 -0 -0 -4 -0 -0 -17 -7 -11 -20 -12 -8 -11 -24 -47 -97 -152 -111 -0 -0 -96 -29 -9 -34 -86 -152 -207 -0 -0 -0 -0 -0 -0 -0 -0 -0 -0 -0 -0 -0 -0 -0 -0 -0 -0 -0 -0 -0 -0
-0 -0 -0 -0 -0 -5 -3 -11 -8 -10 -17 -36 -27 -26 -46 -119 -127 -95 -110 -64 -16 -24 -9 -90 -164 -159 -0 -0 -0 -0 -0 -0 -0 -0 -0 -0 -0 -0 -0 -0 -0 -0 -0 -0 -0 -0 -0 -0 -0
-0 -28 -4 -33 -0 -0 -0 -0 -38 -19 -3 -0 -14 -11 -24 -42 -47 -86 -71 -59 -29 -13 -53 -129 -190 -218 -41 -0 -0 -0 -0 -0 -0 -0 -0 -0 -0 -0 -0 -0 -0 -0 -0 -0 -0 -0 -0 -0 -0
-23 -6 -5 -0 -0 -0 -8 -11 -12 -39 -27 -5 -2 -2 -2 -30 -66 -67 -56 -52 -14 -24 -110 -156 -106 -147 -74 -12 -7 -46 -0 -0 -0 -0 -0 -0 -0 -0 -0 -0 -0 -0 -0 -0 -0 -0 -0 -0 -0
-4 -11 -10 -6 -0 -0 -10 -0 -46 -36 -16 -10 -20 -22 -21 -30 -59 -36 -26 -31 -23 -68 -82 -64 -48 -53 -20 -9 -13 -0 -0 -0 -0 -0 -0 -0 -0 -0 -0 -0 -0 -0 -0 -0 -0 -0 -0 -0 -0
-15 -0 -8 -2 -20 -0 -28 -46 -31 -33 -32 -30 -36 -31 -10 -15 -16 -16 -8 -62 -76 -86 -90 -25 -16 -11 -10 -0 -0 -0 -0 -0 -6 -11 -8 -0 -0 -0 -0 -0 -0 -0 -0 -0 -0 -0 -0 -0 -0
-4 -0 -21 -1 -1 -16 -0 -0 -87 -60 -60 -40 -26 -12 -3 -3 -7 -13 -20 -69 -57 -34 -7 -8 -58 -34 -0 -0 -0 -0 -6 -21 -34 -53 -4 -0 -0 -0 -0 -0 -0 -0 -0 -0 -4 -5 -8 -0 -15
-30 -28 -8 -8 -7 -19 -0 -24 -4 -12 -12 -26 -50 -50 -27 -19 -19 -52 -36 -43 -70 -64 -94 -124 -0 -0 -0 -0 -0 -0 -0 -0 -0 -0 -0 -0 -0 -0 -0 -0 -0 -0 -0 -0 -0 -9 -15 -0 -5
-14 -2 -3 -28 -38 -10 -5 -13 -46 -20 -70 -69 -46 -71 -44 -53 -85 -161 -198 -87 -74 -0 -0 -0 -0 -0 -0 -0 -0 -0 -0 -0 -0 -0 -0 -0 -0 -0 -0 -0 -0 -0 -0 -0 -1 -5 -6 -16 -22
-27 -0 -29 -16 -6 -0 -75 -24 -15 -58 -89 -38 -73 -89 -67 -52 -172 -0 -0 -0 -0 -0 -0 -0 -0 -0 -0 -0 -0 -0 -0 -0 -0 -0 -0 -0 -0 -0 -0 -0 -0 -0 -0 -0 -0 -8 -4 -8 -9
-0 -5 -5 -3 -0 -0 -0 -0 -57 -104 -133 -76 -90 -92 -71 -49 -178 -0 -0 -0 -0 -0 -0 -0 -0 -7 -0 -0 -0 -0 -0 -0 -0 -0 -0 -0 -0 -0 -0 -0 -0 -0 -0 -0 -0 -0 -4 -9 -13
-0 -0 -13 -2 -0 -0 -0 -0 -17 -68 -0 -126 -93 -92 -72 -83 -184 -0 -0 -0 -7 -5 -2 -0 -4 -0 -0 -0 -0 -0 -0 -0 -0 -0 -0 -0 -0 -0 -0 -0 -0 -0 -0 -0 -0 -0 -7 -15 -20
-16 -19 -0 -0 -4 -3 -33 -11 -43 -0 -0 -0 -96 -86 -67 -133 -196 -0 -1 -7 -5 -21 -22 -0 -0 -0 -0 -0 -0 -0 -0 -0 -0 -0 -0 -0 -0 -0 -0 -0 -0 -0 -0 -0 -4 -10 -10 -10 -0
-0 -0 -0 -1 -0 -6 -0 -1 -0 -0 -0 -0 -0 -92 -74 -155 -168 -135 -36 -14 -9 -0 -0 -0 -0 -0 -0 -0 -0 -0 -0 -0 -0 -0 -0 -0 -0 -0 -0 -0 -0 -0 -3 -0 -0 -0 -0 -0 -0
Wind_Speed
20 20 19 23 21 19 28 32 32 17 16 18 20 17 9 17 20 18 10 5 8 8 10 8 8 9 9 11 13 14 15 15 15 12 11 13 14 16 18 19 20 21 22 23 24 25 25 26 26
22 24 21 22 23 24 26 26 19 13 11 12 18 14 19 20 14 5 6 5 7 7 11 9 8 7 8 9 12 14 14 14 13 10 11 13 15 17 18 19 21 21 22 23 24 25 25 26 26
22 24 22 20 28 31 36 20 15 12 15 15 17 17 19 17 13 10 4 4 4 9 9 10 8 7 6 9 11 12 12 13 11 10 11 13 15 17 18 19 21 21 22 23 24 25 26 26 26
17 16 21 23 33 36 35 15 8 20 7 9 10 15 14 15 10 5 4 5 8 8 9 7 6 5 8 8 10 11 12 12 10 9 11 14 16 17 18 19 20 21 22 23 24 25 26 26 27
19 22 21 28 29 34 24 12 9 5 11 11 10 15 14 12 7 6 4 4 4 6 9 7 4 4 6 9 10 11 11 11 9 9 12 14 15 16 18 19 20 21 22 23 23 24 25 26 26
21 17 30 33 32 32 19 11 10 10 10 14 14 13 14 7 7 5 5 8 2 8 5 4 4 2 7 9 11 12 11 9 8 10 12 13 15 16 17 19 20 21 21 22 22 23 24 24 26
25 28 32 32 32 24 16 10 4 8 12 14 10 14 11 7 7 6 4 7 5 6 6 6 3 3 6 7 11 12 10 8 9 10 12 13 15 16 17 18 19 19 20 20 21 22 23 24 24
27 30 34 35 34 17 19 22 16 12 15 14 11 17 9 8 5 6 7 13 14 5 7 6 6 5 6 11 11 9 8 8 10 11 12 13 14 15 16 17 18 18 19 19 19 20 21 22 23
30 32 33 33 28 22 20 22 28 27 20 15 6 10 7 13 7 7 5 8 11 10 13 16 14 20 19 11 8 8 7 10 11 12 12 12 13 13 14 15 16 16 18 17 18 19 19 20 20
26 29 29 31 23 29 24 23 16 12 17 19 8 8 7 10 7 8 2 9 3 6 20 22 19 17 16 8 10 11 12 11 11 11 11 10 12 13 13 13 15 16 17 16 16 17 19 23 23
27 31 27 17 14 14 17 12 4 17 13 21 10 12 11 11 12 9 17 10 8 5 19 16 11 9 7 13 14 13 10 10 10 10 12 12 14 15 16 16 16 16 17 17 16 14 15 25 27
29 27 22 12 13 15 13 6 4 14 17 15 10 11 10 11 13 20 29 12 24 15 14 10 11 6 9 9 10 10 11 10 10 11 14 16 17 18 20 19 22 18 22 26 24 24 25 26 27
25 22 18 15 15 16 10 16 19 13 16 9 13 12 11 13 14 17 18 24 20 19 15 12 9 8 11 11 11 13 13 13 14 14 15 16 16 17 18 18 18 21 22 25 26 27 28 30 31
20 22 12 15 13 18 12 15 10 19 9 8 9 10 13 12 5 22 12 16 20 19 16 14 12 11 12 12 13 14 15 15 16 17 17 17 18 18 18 20 19 22 24 26 27 28 29 30 33
11 13 12 15 10 14 13 8 13 11 14 9 8 6 4 3 23 15 15 15 14 13 13 14 16 16 13 13 13 13 14 16 17 17 19 18 20 18 17 20 21 22 24 25 27 29 32 34 33
10 18 19 13 21 7 9 10 9 11 11 6 5 2 4 2 6 12 14 15 16 16 16 16 14 11 12 13 13 12 12 13 15 14 17 18 20 18 17 18 20 21 23 23 27 31 33 35 35
19 17 25 23 18 7 10 9 10 16 13 10 7 10 6 9 13 8 10 13 14 14 13 10 10 10 10 10 12 11 13 13 14 13 16 16 17 16 15 18 20 23 23 26 29 32 33 35 36
16 24 20 14 11 21 8 9 9 16 18 18 18 21 19 17 7 7 9 10 13 13 12 9 8 9 9 10 11 12 13 13 12 12 11 12 15 15 19 18 19 23 25 27 29 30 33 33 36
16 19 10 5 5 6 7 11 11 20 20 17 17 15 10 7 8 9 10 8 9 7 7 5 6 7 8 9 10 10 10 11 11 11 12 12 14 16 18 20 22 23 27 29 29 30 32 33 35
21 14 8 11 10 5 8 8 15 17 21 12 9 11 10 11 7 8 7 6 6 6 6 6 6 5 5 6 7 10 11 11 11 13 13 14 14 16 18 20 23 26 27 28 29 31 33 34 35
15 13 21 6 14 17 19 20 16 17 11 4 7 10 10 9 6 6 5 4 5 5 5 6 5 7 8 7 11 11 11 13 12 12 11 12 15 18 20 23 24 26 27 28 30 31 32 35 37
9 12 23 21 17 9 21 10 10 7 12 12 11 13 11 8 7 5 4 4 4 4 5 9 11 10 8 9 9 10 10 10 12 13 12 14 16 19 23 24 25 25 26 29 30 30 33 34 35
18 22 24 23 25 19 24 26 17 21 12 7 8 7 6 4 3 3 4 4 7 10 10 10 9 9 9 9 8 8 12 12 13 15 16 20 20 20 20 22 23 25 28 30 31 32 31 32 36
15 18 15 24 28 11 8 9 15 7 6 5 7 5 4 1 2 3 5 8 8 9 9 9 9 9 8 9 11 11 12 15 16 17 20 20 21 25 23 24 26 28 31 32 32 31 31 33 35
11 18 19 21 22 20 23 3 21 20 6 18 7 5 4 5 6 9 9 8 8 7 7 7 7 7 8 9 11 13 14 16 17 18 20 24 25 25 27 29 30 31 32 33 33 33 32 33 36
25 16 19 17 17 20 22 21 9 9 12 8 5 6 7 8 8 9 9 8 6 5 5 4 5 6 8 9 11 13 14 17 19 22 24 24 25 26 28 30 31 33 34 34 34 35 33 32 33
19 19 18 25 24 24 24 28 14 9 10 8 6 6 6 6 7 7 7 4 4 3 3 4 5 6 8 11 12 13 16 18 21 22 23 24 25 27 29 31 32 32 33 34 35 34 34 32 32
23 23 21 19 21 24 26 31 12 5 7 8 5 4 4 3 5 5 4 2 2 2 3 5 8 7 10 11 14 15 19 20 19 23 24 24 26 27 29 31 32 33 33 33 34 34 33 34 33
19 26 25 27 20 20 22 16 11 7 7 8 5 3 1 1 2 2 1 1 5 5 5 7 9 9 10 13 14 17 19 21 21 23 24 25 26 28 30 32 33 33 34 34 35 35 34 35 34
25 25 16 20 24 21 19 27 16 14 11 9 8 4 2 1 1 1 3 3 5 7 8 9 10 11 12 13 16 18 18 19 23 24 25 25 28 28 30 32 33 33 34 35 36 36 35 35 34
Wind_Direction
295 292 289 283 282 289 284 276 269 287 295 305 315 315 317 319 302 289 341 65 85 94 108 104 93 87 80 74 68 61 53 49 42 20 9 10 16 20 23 24 25 27 27 28 27 25 24 20 18
284 276 287 287 276 284 284 289 302 298 313 319 325 307 299 300 331 342 309 337 83 100 110 110 107 95 83 72 65 57 49 42 28 7 5 12 18 25 26 29 32 31 30 30 29 29 27 20 11
275 272 281 284 270 271 255 315 318 326 304 296 290 342 305 303 321 317 29 32 93 123 115 116 120 97 79 66 54 49 44 37 14 355 4 19 27 30 31 32 32 31 30 28 30 28 24 13 5
297 295 282 281 264 250 262 306 301 302 320 334 308 333 338 324 321 357 58 37 106 116 114 131 111 115 82 58 48 44 40 29 2 358 8 21 32 35 36 34 35 33 29 27 27 27 23 17 6
285 278 281 274 276 259 293 327 322 294 321 343 335 324 325 342 34 37 50 41 130 88 114 119 135 109 70 53 45 44 29 9 355 6 18 26 29 34 37 37 35 31 32 32 31 26 24 17 10
277 287 259 251 252 277 307 324 320 354 338 335 343 335 330 10 354 30 73 63 64 97 103 141 168 111 59 50 47 40 29 3 357 11 21 26 34 39 37 38 31 31 34 32 27 23 23 19 11
265 262 249 253 273 289 323 9 9 320 323 355 352 345 353 11 15 46 47 64 59 95 135 185 184 73 46 31 43 39 12 351 7 20 28 34 39 38 36 32 28 29 29 27 23 19 14 12 9
256 257 253 256 253 324 312 290 306 327 307 329 335 316 345 26 22 5 73 94 100 143 132 100 81 48 32 48 38 12 2 13 24 28 38 47 48 44 35 30 24 24 24 19 18 14 10 4 4
237 258 256 262 286 294 319 315 287 284 298 316 317 329 11 87 70 47 54 98 107 115 98 97 91 99 95 55 6 10 9 36 43 44 52 60 48 36 32 27 23 24 20 17 15 12 6 5 7
260 256 262 286 296 288 307 307 324 329 299 213 343 47 62 75 89 98 114 223 134 89 89 99 97 92 89 34 54 54 63 57 48 43 48 41 17 26 20 24 21 14 14 16 14 16 5 350 358
254 242 261 336 335 335 350 340 97 293 317 310 350 60 71 86 97 93 130 107 105 62 81 80 60 46 13 64 82 72 60 51 35 39 17 18 8 4 2 2 10 3 1 4 6 14 13 350 345
244 239 291 339 348 347 341 3 357 315 314 341 52 62 79 93 101 115 158 117 112 84 75 58 70 345 33 44 57 53 46 49 48 33 6 358 352 350 347 356 352 7 352 340 350 353 356 349 344
258 284 309 324 340 324 14 5 318 328 297 63 60 74 80 90 99 121 123 103 92 96 86 76 59 34 73 50 38 21 22 21 24 15 5 3 357 355 348 358 4 357 354 346 342 344 342 340 338
275 272 336 353 333 272 331 35 61 188 237 33 61 68 85 86 27 196 71 82 100 97 91 86 76 70 69 46 36 30 12 7 7 12 5 3 359 355 355 354 2 354 351 342 341 341 340 337 334
316 306 323 146 115 7 273 46 30 29 54 56 48 48 281 24 111 84 88 89 85 81 82 88 96 96 58 49 39 27 23 16 0 7 4 5 358 13 5 353 349 349 350 344 343 340 337 333 335
301 264 255 193 171 49 21 330 27 45 55 41 42 324 267 313 53 71 82 86 91 95 97 105 89 59 51 50 48 26 26 18 1 5 3 1 7 8 12 8 356 353 353 349 344 341 336 334 333
226 230 207 226 150 31 350 321 63 80 73 65 53 72 57 71 82 54 67 84 90 98 100 70 61 52 48 33 19 18 357 358 359 359 356 1 10 13 13 8 0 353 351 348 345 339 337 333 332
137 199 244 271 100 167 41 328 71 111 119 111 103 116 112 116 58 49 79 78 103 110 102 73 46 31 25 17 14 7 5 1 2 15 22 20 14 10 2 4 358 354 351 348 343 341 338 336 334
196 245 116 37 37 31 71 100 100 146 149 129 107 114 98 81 65 64 85 82 113 90 81 47 45 34 24 19 11 16 27 35 37 42 36 35 23 14 5 1 358 353 346 343 343 342 340 338 336
236 269 89 79 70 77 128 84 125 135 165 117 96 112 112 110 81 94 79 84 40 49 36 30 35 40 50 63 68 50 41 53 52 44 36 23 17 9 4 357 351 349 346 344 343 341 337 335 336
264 293 260 355 110 148 170 167 138 151 137 68 120 135 137 133 112 105 90 55 30 25 25 25 48 96 118 82 47 54 57 40 37 26 24 22 11 3 357 351 349 346 345 342 340 338 337 334 333
341 326 169 244 171 118 242 327 280 114 154 157 154 157 147 139 138 119 97 39 12 13 78 116 117 122 87 60 54 43 33 26 18 23 30 12 3 354 349 347 345 344 343 339 337 336 333 332 331
296 275 261 273 256 261 250 280 196 187 163 163 153 148 136 131 104 94 95 59 107 121 123 114 92 76 53 47 51 47 23 24 18 8 358 349 345 347 345 344 343 341 339 336 335 333 336 333 329
288 277 189 232 248 321 167 164 309 170 193 143 139 131 148 72 92 86 93 96 83 87 74 78 69 45 44 30 21 15 9 4 0 354 348 346 346 343 345 346 346 343 341 338 337 334 333 332 330
312 294 298 304 291 286 278 258 306 174 107 174 138 125 108 112 113 124 116 106 98 86 73 62 48 39 29 17 8 2 358 354 350 347 346 342 341 341 340 340 339 337 335 334 333 331 330 330 330
270 301 296 301 313 306 286 295 330 8 345 31 84 108 113 119 121 131 126 118 101 95 78 63 44 28 20 8 2 359 357 351 348 345 341 341 339 339 339 338 338 336 335 335 334 333 331 331 331
253 284 284 277 288 293 286 288 327 355 3 23 70 104 116 119 128 140 134 121 107 83 53 18 7 7 8 360 357 352 349 345 338 340 341 339 340 339 339 338 337 337 336 335 334 333 333 333 333
273 279 283 293 297 292 295 285 308 356 14 19 51 89 106 108 131 147 142 114 38 28 12 358 349 354 356 353 347 345 341 339 337 340 339 339 339 339 338 338 337 336 336 336 335 334 335 334 332
283 275 279 276 299 306 302 329 10 14 3 10 18 46 85 106 153 164 195 352 342 341 342 341 343 346 343 342 341 339 340 340 339 338 338 338 339 339 338 338 338 337 338 337 337 338 337 336 337
283 281 307 296 290 301 300 281 327 338 348 349 349 351 347 304 216 247 305 324 336 343 337 334 335 338 340 340 335 335 337 338 336 336 337 339 338 339 339 338 338 338 339 341 339 337 336 334 334